Regional Weather Roundup
Issued by NWS

Home | Current Version | Previous Version | Text Only | Print | Product List | Glossary On
Versions: 1 2 3 4 5 6 7 8 9 10 11 12 13 14 15 16 17 18 19 20 21 22 23 24 25 26 27 28 29 30 31 32 33 34 35 36 37 38 39 40 41 42 43 44 45 46 47 48 49 50
000
ASUS43 KBIS 240510
RWRND

NORTH DAKOTA REGIONAL WEATHER ROUNDUP
NATIONAL WEATHER SERVICE BISMARCK ND
1200 AM CDT FRI MAY 24 2019

NOTE: "FAIR" INDICATES FEW OR NO CLOUDS BELOW 12,000 FEET WITH NO
SIGNIFICANT WEATHER AND/OR OBSTRUCTIONS TO VISIBILITY.


NDZ001>003-009>011-017-240600-
NORTHWEST NORTH DAKOTA

CITY           SKY/WX    TMP DP  RH WIND       PRES   REMARKS
WILLISTON      MOCLDY    54  39  57 E7        29.96F
MINOT          CLEAR     51  40  65 SE7       30.01F
MINOT AFB      CLEAR     46  37  70 SE7       30.00F
$$

NDZ018>021-031>035-040>046-240600-
SOUTHWEST NORTH DAKOTA

CITY           SKY/WX    TMP DP  RH WIND       PRES   REMARKS
BISMARCK       PTCLDY    50  45  83 E7        30.02F
DICKINSON      CLOUDY    48  42  80 SE15      29.93F
GARRISON         N/A     47  43  86 E6        30.00F
HETTINGER ARPT LGT RAIN  48  43  82 E10       29.97F
$$

NDZ004>008-012>016-024-026-027-054-240600-
NORTHEAST NORTH DAKOTA

CITY           SKY/WX    TMP DP  RH WIND       PRES   REMARKS
GRAND FORKS    PTCLDY    49  45  86 SE5       30.09S
GRND FRKS AFB  PTCLDY    49  49  99 SE5       30.09S
DEVILS LAKE    CLEAR     49  45  86 SE7       30.08S
$$

NDZ022-023-025-028>030-036>039-047>053-240600-
SOUTHEAST NORTH DAKOTA

CITY           SKY/WX    TMP DP  RH WIND       PRES   REMARKS
FARGO          CLOUDY    52  49  89 E6        30.08R
JAMESTOWN      CLEAR     42  42 100 E6        30.05R
$$




USA.gov is the U.S. government's official web portal to all federal, state and local government web resources and services.